Location: Newark
(40.4881°N, 5.6117°W)
Time: 00:39:19
(UTC+00:00)

OTV 5 (USA 277) - Visible Passes

Search period start: 20 October 2019 00:00
Search period end: 30 October 2019 00:00
Orbit: 310 x 324 km, 54.5° (Epoch: 17 October)

Date Brightness Start Highest point End Pass type
(mag) Time Alt. Az. Time Alt. Az. Time Alt. Az.
20 Oct ? 05:05:03 51° NNE 05:05:15 53° NE 05:07:57 10° ESE visible
21 Oct ? 05:19:47 46° SW 05:19:47 46° SW 05:22:25 10° SSE visible
22 Oct ? 05:34:41 15° SW 05:34:41 15° SW 05:35:55 10° SSW visible
27 Oct ? 18:22:08 10° SSE 18:23:52 15° SE 18:24:02 15° ESE visible
28 Oct ? 18:35:37 10° SSW 18:38:14 45° SE 18:38:40 40° ESE visible
29 Oct ? 18:50:05 10° WSW 18:52:45 54° NW 18:53:10 47° N visible
